indice_tiempo,oferta_global_pib,oferta_global_importacion,oferta_global_total,manda_global_consumo_priv,demanda_global_consumo_publico,demanda_global_ibif_total,demanda_global_ibif_equipo_durable_produccion,demanda_global_ibif_equipo_durable_produccion_nacional,demanda_global_ibif_equipo_durable_produccion_importado,dg_ibif_equipo_durable_prod_maquinaria_equipo_total,dg_ibif_equipo_durable_prod_maquinaria_equipo_nacional,dg_ibif_equipo_durable_prod_maquinaria_equipo_importado,dg_ibif_equipo_durable_prod_material_transporte_total,dg_ibif_equipo_durable_prod_material_transporte_nacional,dg_ibif_equipo_durable_prod_material_transporte_importado,demanda_global_ibif_construccion,demanda_global_ibif_otras_construcciones,demanda_global_ibif_otros_activos_fijos,demanda_global_exportacion,demanda_global_total,variacion_existencias,discrepancia_estadistica,objetos_valiosos
2004-01-01,460369.4422329487,73073.43481112685,533442.8770440756,305237.1734056582,49687.34219058054,71794.43385344952,27697.89231392705,14014.168770194614,13683.723543732434,21606.70069870658,10219.865230405332,11386.835468301248,6091.19161522047,3794.3035397892822,2296.8880754311876,36460.45492848201,7236.558745380092,398.9546678971187,102774.20298138498,533442.9736900443,3949.8212589709524,,
2004-04-01,514395.6817723617,80006.3072174586,594401.9889898202,338800.0016764252,52072.27795725742,81995.48031590602,34869.00969301723,18189.19826361736,16679.811429399873,26735.619468347926,12842.806191118612,13892.813277229314,8133.390224669305,5346.3920724987465,2786.998152170558,38186.50386633575,8541.557150456685,394.38280180289433,119462.27741173614,594401.9704962727,2071.933134947911,,
2004-07-01,481151.9799435081,85416.07252113911,566568.0524646472,310440.5741314673,53720.816256870574,79254.31381216343,30760.80975061978,15536.735535930675,15224.074214689106,23766.233796258974,11278.203454099661,12488.03034215931,6994.575954360811,4258.532081831015,2736.043872529796,39217.07298132684,8849.882127300994,427.1764628567596,119619.17122810414,566568.0261516126,3533.150723007206,,
2004-10-01,484543.6768765623,88375.32157266857,572918.9984492309,293849.7939520492,60194.71817543847,75368.48047083837,28080.622231594913,13241.058946751928,14839.563284842985,22228.600367590923,9902.566616301436,12326.03375128949,5852.021864003986,3338.492330450491,2513.5295335534947,40190.0848329416,6659.212963776085,442.53293464154285,120898.05016710557,572918.9466098445,22607.903844412853,,
2005-01-01,493602.53057785495,84904.77744994142,578507.3080277963,319799.76251832145,54179.35547164225,80672.43472385775,32438.021771523527,17027.476951898276,15410.544819625251,23958.50663039148,11368.329115707644,12590.177514683835,8479.51514113205,5659.147836190633,2820.3673049414165,40453.18079230061,7365.526650983053,415.70550905054586,119186.92694656595,578507.3080277967,4668.8283674091235,,
2005-04-01,581668.2498796025,97288.20329605682,678956.4531756593,385778.0721106242,58212.17198611024,94508.35870797462,43175.78823272252,22522.222410111543,20653.565822610977,31506.14716742475,14985.056916131873,16521.090251292877,11669.641065297768,7537.165493979669,4132.475571318099,42525.9035370568,8376.62592048316,430.0410177121332,138217.54798367393,678956.4531756593,2240.3023872762333,,
2005-07-01,514697.78950542817,96844.89303709046,611542.6825425186,323831.3656613597,58977.83929305516,89948.60416710979,38621.3698091824,19733.00020172042,18888.369607461977,28720.471046095823,13410.222004201378,15310.249041894445,9900.898763086574,6322.778197519043,3578.1205655675312,42323.62415882933,8563.899566852819,439.7106322452479,135432.69307676284,611542.6825425186,3352.1803442310757,,
2005-10-01,522255.20005077147,99636.55792383585,621891.7579746073,311201.9350682639,65561.51262271135,92100.02293755974,39592.91331410494,18655.816983567147,20937.09633053779,29105.593203248238,13109.670219828322,15995.922983419916,10487.320110856703,5546.146763738826,4941.173347117877,45290.73520284392,6779.598655781376,436.7757648295084,129550.81848020395,621891.7579746074,23477.46886586838,,
2006-01-01,532348.2120169173,96613.8916394867,628962.103656404,354888.1198370661,56878.87961277132,93836.57316923379,40157.01999126794,19991.34508567434,20165.674905593594,29994.869411527776,13088.19222073515,16906.677190792623,10162.15057974016,6903.1528649391885,3258.9977148009716,45601.146704741805,7640.089736661475,438.31673656257414,125801.74305657322,628962.1036564041,-2443.2120192403586,,
2006-04-01,614076.3926085439,101743.8617298436,715820.2543383874,412814.6666905762,60002.96256628369,105355.8130616704,48448.00798174167,25160.599069927463,23287.408911814207,35657.29759564283,16666.681443029232,18990.616152613595,12790.710386098843,8493.917626898228,4296.7927592006145,47234.21177333288,9245.257414704796,428.33589189105857,141431.39484319702,715820.2543383875,-3784.5828233397406,,
2006-07-01,562978.9656268766,109844.576627056,672823.5422539326,372993.0937998369,60840.091459644784,106228.60234204463,47138.19825161273,24352.50042267349,22785.69782893924,35606.85961571976,16625.87243208565,18980.98718363411,11531.338635892967,7726.62799058784,3804.710645305127,49579.59601444692,9044.974605117517,465.8334708674544,139275.06000824485,672823.5422539326,-6513.305355838509,,
2006-10-01,572794.0466305884,112095.47619426234,684889.5228248507,346795.75351214455,68028.75217628879,103509.58849471423,45880.12508384962,23808.2936254352,22071.831458414425,34363.4097688189,16220.280349147024,18143.129419671877,11516.71531503072,7588.013276288174,3928.702038742546,50584.035385243,6562.568251941363,482.85977368024646,144930.84608108603,684889.5228248506,21624.58256061705,,
2007-01-01,576846.8856994272,112275.54046719316,689122.4261666203,394546.92237347405,61224.20472292366,111459.50015804857,52653.90259016238,23493.95562187794,29159.94696828444,40561.20410701507,15001.694443914319,25559.50966310075,12092.698483147306,8492.261177963619,3600.4373051836874,50829.94267640323,7495.13631130713,480.5185801758329,129994.2930727219,689122.4261666203,-8102.494160547839,,
2007-04-01,674620.5630064849,117677.32624788815,792297.889254373,444046.11165498366,65259.863868160544,125373.05789199457,63781.466033341334,29514.046501671153,34267.41953167018,48655.41509773172,19606.9840856308,29048.431012100922,15126.050935609612,9907.062416040353,5218.988519569259,51752.303712497305,9358.024265715012,481.2638804409189,151852.51450331474,792297.8892543731,5766.341335919644,,
2007-07-01,610425.6940148536,136188.56334207152,746614.257356925,403183.03818433546,65411.56329630151,128893.70334910932,63543.07273745037,28053.164971592,35489.90776585837,49509.09394806741,18881.56811363045,30627.52583443697,14033.978789382956,9171.596857961553,4862.381931421403,56089.13129864882,8767.80765978724,493.6916532228812,153959.99205222024,746614.257356925,-4834.0395250414695,,
2007-10-01,625876.8678635969,136704.0597547481,762580.927618345,384630.07880417624,73096.78847365975,126843.69936850498,61533.994118290124,26579.32818484045,34954.66593344967,49449.92179130731,17879.729706894366,31570.19208441294,12084.07232698282,8699.598477946087,3384.4738490367326,57278.02553590611,7514.522246030398,517.1574682783506,160654.2198809369,762580.927618345,17356.141091067057,,
2008-01-01,616720.3570644783,138615.196997182,755335.5540616603,434706.92070959473,63538.090213852025,130866.2750307655,65763.0031060073,25479.62716912864,40283.37593687866,50905.683393071595,16469.501046400175,34436.18234667142,14857.319712935709,9010.126122728463,5847.1935902072455,56634.33900143492,7969.533891166711,499.39903215654977,138205.65471421785,755335.5540616603,-11981.386606769784,,
2008-04-01,711405.5004552329,147043.53953203355,858449.0399872665,485578.4593545365,69148.37939277048,146972.60805294834,77672.86420132582,32122.832155399614,45550.03204592621,61173.967613547466,20736.590260572477,40437.37735297499,16498.896587778356,11386.241894827135,5112.65469295122,59792.43852039971,9009.37702576228,497.92830546053585,147769.55715328988,858449.0399872665,8980.036033721306,,
2008-07-01,647087.9597424942,153056.79563738545,800144.7553798796,425312.74440875015,69622.82939732778,138451.48746983963,70399.38650822795,27827.071403981237,42572.315104246714,55368.87868042257,18328.824412878083,37040.05426754449,15030.50782780538,9498.246991103157,5532.260836702223,59238.67415393731,8273.666231469933,539.7605762044473,169221.27116816866,800144.7553798797,-2463.577064206515,,
2008-10-01,613490.821702641,132326.80332668536,745817.6250293263,398635.44285744097,75972.69916694464,119110.68925230175,58636.70451431267,23785.080320145134,34851.62419416753,47218.50956448617,16630.719453891386,30587.790110594786,11418.194949826498,7154.36086625375,4263.8340835727495,52476.37650646124,7462.6586065267265,534.9496250011136,145677.599528055,745817.6250293262,6421.194224583824,,
2009-01-01,578553.0442424045,108884.58517996111,687437.6294223657,410435.1583771096,65839.05478030315,95500.5721063584,45530.593032370394,18259.984375372864,27270.608656997527,36840.38117850556,11538.56650248703,25301.81467601853,8690.21185386483,6721.417872885835,1968.7939809789957,42031.03557302732,7417.465648456272,521.4778525044202,127658.2065877633,687437.6294223655,-11995.36242916899,,
2009-04-01,631197.7518600689,104729.45493210446,735927.2067921733,423959.3386236015,71368.48936247379,99870.79079402325,49352.34616152663,24269.479190357677,25082.866971168947,38705.363421828144,16241.821502051473,22463.54191977667,10646.982739698478,8027.6576883062025,2619.3250513922762,42535.05626250171,7457.849927585017,525.5384424098962,147851.62921163163,735927.2067921733,-7123.041199556884,,
2009-07-01,610519.8546117273,123133.6440304645,733653.4986421918,419318.04320998426,74331.01172110844,108714.07912083372,52112.14701580085,24218.73152182449,27893.41549397636,42303.797965357575,16153.213304460534,26150.584660897042,9808.349050443278,8065.518217363959,1742.8308330793195,48877.436988426816,7192.780796257818,531.7143203482277,131625.13245280623,733653.4986421918,-334.7678625408504,,
2009-10-01,615220.8549372972,129128.9859125566,744349.8408498538,396373.3691899605,82422.55744733862,110460.32612797979,52869.97327945483,24283.59330060143,28586.379978853405,42675.01351472757,17013.694765517204,25661.318749210368,10194.959764727262,7269.898535084226,2925.0612296430368,50250.27301988475,6817.83363619828,522.2461924419138,137574.77413312762,744349.8408498538,17518.813951447286,,
2010-01-01,611607.33658973,131091.92974987472,742699.2663396047,439461.2457168135,70569.0067685535,108785.85710582584,52936.00825016157,23377.71926256907,29558.2889875925,41050.74181908512,15080.48146681168,25970.260352273435,11885.266431076454,8297.23779575739,3588.028635319064,47554.80416619364,7797.268385369077,497.7763041015534,124821.26202219723,742699.2663396047,-938.105273785256,,
2010-04-01,733730.7739689033,151260.05259704147,884990.8265659448,487297.5986480419,77185.40145097743,130038.89517350178,68138.30705211603,31040.35634955317,37097.95070256285,52489.03108134576,20598.006846616172,31891.02423472959,15649.275970770257,10442.349502936997,5206.92646783326,51996.13809722384,9426.242988593442,478.2070355684851,175584.32821404992,884990.8265659449,14884.603079373786,,
2010-07-01,668566.5094889859,171903.47870439343,840469.9881933792,456779.066656185,76311.35500675494,139803.95750292117,73749.51348788393,32031.667845039483,41717.84564284445,57935.25044831664,21709.146049605646,36226.104398710995,15814.263039567286,10322.521795433835,5491.741244133451,56567.646558138935,8997.973409302112,488.82404759618265,168049.6179071699,840469.9881933796,-474.00887965144494,,
2010-10-01,668190.0977195739,175630.37609457492,843820.4738141488,451162.75340541295,85922.6262566636,144754.3240647099,81077.65685102664,33739.40559286751,47338.251258159136,62377.800569020736,22536.673233790592,39841.12733523014,18699.8562820059,11202.732359076912,7497.123922928991,56609.59359910562,6592.447677825516,474.62593675211605,151952.376643681,843820.4738141486,10028.3934436812,,
2011-01-01,662325.5859726951,171680.48522975415,834006.0712024493,484513.9866221313,74065.61550360995,139564.46171539812,76119.63759527837,29600.356833571917,46519.28076170645,60014.48694036073,20009.25473161317,40005.23220874756,16105.150654917634,9591.102101958744,6514.0485529588905,55248.40723377935,7699.269133091569,497.1477532488331,138279.54794538196,834006.0712024495,-2417.540584071936,,
2011-04-01,766332.9545716126,185834.800630491,952167.7552021036,521971.6246991987,80830.22216387503,153571.0195551041,87078.37983800817,39200.18638356175,47878.19345444643,65750.16993961307,25943.51412153167,39806.6558180814,21328.209898395107,13256.67226203008,8071.537636365027,57719.46334051161,8301.816625406651,471.35975117765156,170971.27052045267,952167.7552021035,24823.618263473018,,
2011-07-01,711417.3919301049,212358.1719142757,923775.5638443807,509458.2538576882,81814.12347117398,164571.6467049708,93049.20325967694,39514.46137405037,53534.74188562657,70137.87964710715,25908.234617891852,44229.6450292153,22911.323612569788,13606.226756158518,9305.09685641127,62357.03288056812,8679.267311872938,486.1432528527918,172841.45085261774,923775.5638443806,-4909.911042070125,,
2011-10-01,703050.4564079925,198767.51540656987,901817.9718145623,490644.74845936126,87429.11790493385,156629.21241772975,87999.1244045329,37465.752638789505,50533.37176574339,68501.35883083839,24981.815499696633,43519.54333114176,19497.7655736945,12483.937139092874,7013.828434601627,61029.028306624416,7105.891412512106,495.1682940603611,164054.87715450366,901817.9718145626,3060.0158780339243,,
2012-01-01,672685.9936305042,175963.63222419753,848649.6258547017,494561.058682757,77065.36011865595,134285.04105704132,71265.81059288379,30177.511394248562,41088.29919863523,55198.83307303385,19355.278357826213,35843.55471520764,16066.977519849937,10822.233036422347,5244.74448342759,55037.252891787364,7491.521744314996,490.4558280551728,145984.1028063894,848649.6258547017,-3245.936810141879,,
2012-04-01,730838.2725927759,168790.03309891451,899628.3056916904,516528.23176810256,82453.8409794096,134408.94797285143,69009.64520509378,35277.909109426284,33731.736095667504,51117.058608575884,22362.280506453793,28754.77810212209,17892.586596517904,12915.628602972489,4976.957993545415,55516.26191683951,9401.799933197524,481.24091772060234,155692.76464038188,899628.3056916905,10544.520330945004,,
2012-07-01,703461.6525301962,194333.56638199877,897795.218912195,517627.4794360068,84029.38424119438,150230.81659457326,82982.29078764384,37438.21256969673,45544.078217947106,63457.75526000373,23843.327357673345,39614.42790233039,19524.535527640095,13594.885212023379,5929.650315616717,57516.44693596992,9238.025438461873,494.0534324976532,164111.32295096805,897795.2189121952,-18203.784310547417,,
2012-10-01,706958.0390823188,193210.37317505115,900168.41225737,500150.63183982833,90344.79818176839,151946.00276177566,85916.73223501064,38105.92513597685,47810.80709903379,66828.70398233547,25280.19596641803,41548.50801591745,19088.028252675165,12825.729169558821,6262.299083116344,58264.3441868956,7249.764278175747,515.162061693657,153813.21961273107,900168.4122573697,3913.759861266301,,
2013-01-01,677085.5291731509,176602.613153124,853688.1423262749,506950.4464066281,80963.0147224332,133273.1129258469,70767.05917163576,30677.502821384827,40089.55635025093,54090.38167763449,18717.646060107047,35372.73561752745,16676.677494001266,11959.856761277779,4716.820732723487,53566.30734966173,8424.009326557478,515.7370779919418,131767.05473088424,853688.142326275,734.513540482458,,
2013-04-01,776486.60279942,190652.1070945469,967138.7098939669,543923.3527537831,87051.59686787998,150469.4153047585,83588.22033983123,41258.413982948725,42329.8063568825,60701.176741106785,25846.726416087404,34854.45032501938,22887.043598724442,15411.687566861321,7475.356031863123,56470.205936295875,9890.12307171475,520.8659569166614,168720.23462672776,967138.7098939669,16974.11034081757,,
2013-07-01,721458.9442161823,202951.05150852748,924409.9957247098,538421.0782533975,87994.27213111262,152737.1141048032,84484.80131696547,39525.539416884654,44959.26190008082,61658.96657565586,25597.552829066764,36061.413746589096,22825.834741309613,13927.986587817886,8897.848153491726,58287.921952855,9428.913235358705,535.4775996240111,159733.6322501896,924409.9957247099,-14476.101014792954,,
2013-10-01,706597.3450225069,190526.07736575845,897123.4223882654,513403.25174006564,95656.26703212563,147746.6296025357,81555.53127492909,38326.75476387861,43228.776511050484,59944.73889166031,25543.293466895368,34401.44542476494,21610.79238326879,12783.461296983243,8827.331086285547,57590.78074637841,8058.860005622217,541.4575756059592,137569.02973944266,897123.4223882651,2748.244274095596,,
2014-01-01,671066.0466350627,174142.8791751422,845208.9258102048,517840.5337442633,85482.49373199629,131370.5363099219,69124.48339375158,27732.222073218494,41392.26132053309,52769.88871365892,18204.45884950406,34565.42986415486,16354.594680092669,9527.763223714433,6826.831456378235,53048.979188969766,8672.89724398855,524.1764832120185,119113.81889969678,845208.9258102048,-8598.45687567352,,
2014-04-01,760576.8683480041,169554.60524510767,930131.4735931117,527379.2269427378,88842.11971854886,141073.1894297702,74697.76894851713,34609.8736883321,40087.89526018503,56770.41229197709,22946.292072237542,33824.12021973955,17927.35665654005,11663.581616094563,6263.775040445488,55288.19322671657,10558.561480176455,528.6657743600308,152688.83294255967,930131.4735931116,20148.104559495117,,
2014-07-01,690879.7982516834,173099.24330165773,863979.0415533411,490626.98948685534,90661.5906350518,140281.45358859547,74627.9145328388,34322.948413663864,40304.96611917493,57763.33713048822,23424.22619810511,34339.11093238311,16864.577402350573,10898.722215558755,5965.855186791819,55286.07230775074,9838.403770641591,529.0629773643435,147198.696369442,863979.041553341,-4789.688526603717,,
2014-10-01,686701.4706187105,156603.14371840068,843304.6143371111,475210.9954940017,97035.59233375054,132033.40948911634,68914.9593451074,30844.926898294194,38070.0324468132,54329.654677592145,21843.695510064237,32485.959167527904,14585.304667515251,9001.231388229955,5584.073279285295,54164.08409340513,8418.815230689224,535.5508199145963,137067.84127832402,843304.6143371112,1956.7757419185482,,
2015-01-01,672749.8113916992,160419.64644001034,833169.4578317096,507483.723069378,88812.95550774357,128790.25331296679,66925.81686656066,27964.01554627734,38961.80132028332,53964.566852493524,18451.737863516253,35512.82898897727,12961.25001406713,9512.277682761085,3448.9723313060463,52468.22239054816,8858.836345172062,537.377710685913,116284.29138088347,833169.4578317094,-8201.76543926239,,
2015-04-01,791235.9655416702,174021.01747036108,965256.9830120313,569042.1858712141,97227.65945609038,143522.13876214108,75991.77582945264,34605.2215786857,41386.55425076695,58006.15671107074,23544.371557331582,34461.78515373916,17985.619118381906,11060.850021354116,6924.769097027791,56615.13347358688,10375.966331386006,539.263127715556,149591.7080612978,965256.9830120314,5873.290861287952,,
2015-07-01,718281.2654497817,192990.26576942843,911271.5312192101,518592.727887606,98086.76652572925,149008.18693087087,79947.10584013426,35628.88894303947,44318.21689709478,61264.91359727757,23596.591313796383,37668.32228348119,18682.19224285668,12032.297629243089,6649.89461361359,57890.314755977546,10632.374267228384,538.3920675306789,147404.70503841515,911271.53121921,-1820.8551634112596,,
2015-10-01,703681.544169008,177694.9568914407,881376.5010604487,489467.32535882184,103040.47142187048,142300.30190956546,77472.80385954567,37026.90786106403,40445.89599848164,61413.30107957419,26838.66796215239,34574.6331174218,16059.502779971477,10188.239898911637,5871.262881059839,56244.58450772515,8050.305143233042,532.6083990615952,127344.36995735197,881376.5010604486,19224.032412838937,,
2016-01-01,677652.0891157027,179480.42369351548,857132.5128092181,520749.1889776959,90566.2923396524,124425.51841156666,66760.36158765492,28431.314112123917,38329.047475531006,53254.75991062382,18852.741873660332,34402.01803696348,13505.601677031109,9578.572238463586,3927.0294385675224,49762.488701459566,7371.829953706149,530.838168745998,133430.07456094024,857132.5128092181,-12038.561480637094,,
2016-04-01,760703.2801516564,187899.66185803572,948602.9420096921,558368.4353957901,94085.73301934525,134589.4379545192,78711.2966451454,35146.05559550824,43565.24104963715,60855.439493661484,23543.002547977547,37312.436945683934,17855.857151483902,11603.053047530688,6252.804103953215,46428.674203227776,8925.608154325973,523.8589518201044,148260.210877463,948602.9420096921,13299.124762574564,,
2016-07-01,694382.4757762305,193030.1033736731,887412.5791499035,506410.5707127761,96873.95781475112,137185.49507782274,77901.88298326192,34009.95946378538,43891.92351947655,58007.6053508131,23507.71500357285,34499.89034724025,19894.277632448837,10502.244460212534,9392.0331722363,50045.18793288434,8708.681543513465,529.7426181630252,146914.03159839427,887412.5791499035,28.52394615923241,,
2016-10-01,693173.5493470578,185783.37864128867,878956.9279883464,482792.3600649343,103611.65551354598,134851.77049515006,78570.54810252102,35544.87680989607,43025.671292624946,56661.134495632214,25480.543900643086,31180.590594989128,21909.41360688881,10064.33290925299,11845.08069763582,49672.69597165405,6064.365714992489,544.1607059825127,140767.70716094368,878956.9279883464,16933.434753772326,,
2017-01-01,681444.7661102224,194211.6667513001,875656.4328615225,536011.2679688631,92114.46751726622,131486.24599536855,73475.34736724485,30197.14658536106,43278.20078188379,55276.11048236821,19653.617155291864,35622.49332707635,18199.236884876635,10543.529430069197,7655.707454807436,50563.79497882709,6899.673223204211,547.4304260923827,134667.57440605693,875656.4328615225,-18623.123026032266,,
2017-04-01,778401.6764493167,211208.75068866156,989610.4271379783,579761.6634740008,98369.90612425635,147917.72513381098,87054.96792905148,39154.10103868848,47900.866890362995,66275.69878098424,27137.916112030576,39137.78266895366,20779.26914806724,12016.184926657907,8763.084221409334,52413.68348266936,7902.7378387451545,546.3358833450424,150287.5619987416,989610.4271379783,13273.57040716861,,
2017-07-01,721120.4268527941,229079.80670323674,950200.2335560309,530448.7435004468,99417.58472055016,160592.39690911057,93846.77439787293,39397.11808050962,54449.656317363304,72675.40227179966,27372.63252106787,45302.769750731786,21171.37212607327,12024.485559441755,9146.886566631518,57379.723772562415,8810.692197735814,555.2065409394194,153867.07257565853,950200.2335560309,5874.435850264737,,
2017-10-01,724592.9216389629,227978.62402592791,952571.5456648909,508108.8239414609,105392.23970881503,162113.6897786921,94674.75695161539,41150.41765809581,53524.33929351957,74621.37930566375,29299.281989635936,45322.097316027815,20053.37764595163,11851.13566845987,8202.241977491762,58953.518033886394,7911.503704716214,573.9110884741144,145441.11931488177,952571.5456648909,31515.672921041147,,
2018-01-01,707324.2680572141,225441.6687326833,932765.9367898974,552912.8785920906,92056.1938646973,152300.6042109982,87549.61526724006,34804.984638319795,52744.63062892028,67202.05492497218,22491.852299561397,44710.20262541078,20347.560342267894,12313.132338758396,8034.428003509497,56461.11849168203,7733.483741089681,556.3867109864498,144939.93221966934,932765.9367898974,-9443.672097557963,,
2018-04-01,747428.2999545746,220135.48182057161,967563.7817751461,588455.756529514,97624.1805461115,151659.16792457036,87049.77950409788,35815.84729797567,51233.932206122205,68907.47510618412,24808.26932522137,44099.20578096275,18142.30439791375,11007.577972754303,7134.72642515945,55379.39509942616,8665.30182699646,564.6914940498829,137726.1206501707,967563.7817751461,-7901.443875220443,,